Location: Huntsville
(41.2590°N, 111.7678°W)
Time: 18:29:04
(UTC+00:00)

Courier 1B Rocket - Pass Details

Date: 18 June 2021
Orbit: 920 x 1202 km, 28.2° (Epoch: 24 July)

Event Time Altitude Azimuth Distance (km) Brightness Sun altitude
Rises 01:47:13 0° 210° (SSW) 3,793 8.2 11.8°
Reaches altitude 10° 01:51:44 10° 184° (S) 2,774 7.2 11.0°
Maximum altitude 01:54:33 13° 159° (SSE) 2,523 6.8 10.5°
Drops below altitude 10° 01:57:19 10° 133° (SE) 2,700 6.8 10.1°
Sets 02:01:33 0° 107° (ESE) 3,600 7.3 9.3°
